This is the latest recevied weather packets stored in our database for station/object SP4MAZ-13. If no packets are shown the sender has not sent any weather packets the latest 10 day(s).
| Time | Temp. | Humidity | Pressure | Rain* | Wind** | Luminosity | Snow |
|---|---|---|---|---|---|---|---|
| 1777959234 | 13.33° C | 92% | 2147.4 hPa | - | - | - | - |
| 1777958930 | 12.78° C | 98% | 2147.4 hPa | - | - | - | - |
| 1777958627 | 12.22° C | 99% | 2147.4 hPa | - | - | - | - |
| 1777958324 | 12.22° C | 99% | 2147.4 hPa | - | - | - | - |
| 1777958020 | 12.22° C | 98% | 2147.4 hPa | - | - | - | - |
| 1777957716 | 13.33° C | 89% | 2147.4 hPa | - | - | - | - |
| 1777957413 | 13.89° C | 92% | 2147.4 hPa | - | - | - | - |
| 1777957111 | 14.44° C | 79% | 2147.4 hPa | - | - | - | - |
| 1777956809 | 15.56° C | 88% | 2147.4 hPa | - | - | - | - |
| 1777956505 | 15° C | 90% | 2147.4 hPa | - | - | - | - |
| 1777956202 | 15° C | 92% | 2147.4 hPa | - | - | - | - |
| 1777955900 | 14.44° C | 90% | 2147.4 hPa | - | - | - | - |
| 1777955597 | 14.44° C | 96% | 2147.4 hPa | - | - | - | - |
| 1777955293 | 13.33° C | 99% | 2147.4 hPa | - | - | - | - |
| 1777954990 | 11.67° C | 99% | 2147.4 hPa | - | - | - | - |
| 1777954686 | 11.67° C | 99% | 2147.4 hPa | - | - | - | - |
| 1777954382 | 11.11° C | 99% | 2147.4 hPa | - | - | - | - |
| 1777954081 | 10.56° C | 99% | 2147.4 hPa | - | - | - | - |
| 1777953778 | 10° C | 99% | 2147.4 hPa | - | - | - | - |
| 1777953475 | 10° C | 99% | 2147.4 hPa | - | - | - | - |
| 1777940748 | 10.56° C | 99% | 2147.4 hPa | - | - | - | - |
| 1777940444 | 10.56° C | 99% | 2147.4 hPa | - | - | - | - |
| 1777940141 | 11.11° C | 99% | 2147.4 hPa | - | - | - | - |
| 1777939534 | 11.11° C | 99% | 2147.4 hPa | - | - | - | - |
| 1777933771 | 11.67° C | 99% | 2147.4 hPa | - | - | - | - |
* Rain since midnight (hover to see other rain measurements)
** Current wind speed in m/s (hover to see current wind gust speed)